Home > Weather > Opole > Past weeks

Flag for Poland Past Weather in Opole, Poland — Yesterday and Last 2 Weeks

Now
68 °F

Sunny.


Feels Like: 68 °F
Forecast: 65 / 82 °F
Wind: 8 mph from Southeast

Location: Wroclaw Ii

Current Time: Aug 28, 2016 at 9:13:52 AM

Latest Report: Aug 28, 2016 at 8:30 AM


Visibility: 10 mi

Pressure: 30.07 "Hg

Humidity: 78%

Dew Point: 61 °F

Location of OpoleLocation

Past Weather in Opole — Graph

°F

Opole Temperature Yesterday

Maximum temperature yesterday: 86 °F (at 2:00 PM)
Minimum temperature yesterday: 54 °F (at 4:30 AM)
Average temperature yesterday: 71 °F

High & Low Weather Summary for the Past Weeks

 TemperatureHumidityPressure
High86 °F (Aug 27, 2:00 PM)100% (Aug 17, 5:30 AM)30.36 "Hg (Aug 17, 5:30 AM)
Low46 °F (Aug 17, 6:00 AM)30% (Aug 19, 3:00 PM)29.80 "Hg (Aug 18, 3:30 PM)
Average65 °F71%30.11 "Hg
* Reported Aug 13 8:00 AM — Aug 28 8:00 AM, Opole, Weather by CustomWeather, © 2016

Note: Actual official high and low records may vary slightly from our data, if they occured in-between our weather recording intervals... More about our weather records

Advertising

Opole Weather History for the Previous 24 Hours

Scroll right to see more
 ConditionsComfort  
Time TempWeatherWind HumidityBarometerVisibility
8:00 AM
Sun, Aug 28
64 °FSunny.6 mph83%30.07 "Hg10 mi
7:30 AM63 °FSunny.3 mph88%30.07 "Hg10 mi
7:00 AM59 °FSunny.3 mph88%30.07 "Hg10 mi
6:30 AM59 °FFog.3 mph94%30.07 "HgN/A
6:00 AM57 °FFog.6 mph94%30.04 "HgN/A
5:30 AM59 °FFog.3 mph94%30.04 "HgN/A
5:00 AM59 °FClear.3 mph94%30.07 "Hg10 mi
4:30 AM59 °FClear.2 mph94%30.07 "Hg10 mi
4:00 AM61 °FClear.5 mph88%30.07 "Hg10 mi
3:30 AM61 °FClear.3 mph88%30.07 "Hg10 mi
3:00 AM61 °FClear.2 mph88%30.07 "Hg10 mi
2:30 AM61 °FClear.2 mph83%30.07 "Hg10 mi
2:00 AM61 °FClear.2 mph83%30.07 "Hg10 mi
1:30 AM63 °FClear.2 mph77%30.09 "Hg10 mi
1:00 AM63 °FClear.2 mph77%30.09 "Hg10 mi
12:30 AM64 °FClear.3 mph73%30.09 "Hg10 mi
12:00 AM64 °FClear.5 mph73%30.09 "Hg10 mi
11:30 PM
Sat, Aug 27
68 °FClear.3 mph64%30.09 "Hg10 mi
11:00 PM66 °FClear.5 mph64%30.09 "Hg10 mi
10:30 PM66 °FClear.1 mph68%30.09 "Hg10 mi
10:00 PM70 °FClear.1 mph57%30.09 "Hg10 mi
9:30 PM73 °FClear.1 mph50%30.09 "Hg10 mi
9:00 PM72 °FClear.5 mph57%30.09 "Hg10 mi
8:30 PM70 °FSunny.5 mph60%30.09 "Hg10 mi
8:00 PM72 °FSunny.7 mph57%30.09 "Hg10 mi
7:30 PM75 °FSunny.9 mph54%30.09 "Hg10 mi
7:00 PM79 °FSunny.9 mph51%30.09 "Hg10 mi
6:30 PM82 °FSunny.8 mph45%30.09 "Hg10 mi
6:00 PM84 °FSunny.7 mph40%30.09 "Hg10 mi
5:30 PM86 °FPassing clouds.5 mph35%30.09 "HgN/A
5:00 PM86 °FPassing clouds.6 mph33%30.09 "HgN/A
4:30 PM86 °FPassing clouds.5 mph38%30.09 "HgN/A
4:00 PM86 °FPassing clouds.3 mph35%30.09 "HgN/A
3:30 PM86 °FPassing clouds.5 mph33%30.12 "HgN/A
3:00 PM86 °FPassing clouds.6 mph33%30.12 "HgN/A
2:30 PM86 °FPassing clouds.6 mph33%30.12 "HgN/A
2:00 PM86 °FSunny.3 mph31%30.12 "Hg10 mi
1:30 PM84 °FSunny.3 mph33%30.12 "Hg10 mi
1:00 PM84 °FPassing clouds.5 mph35%30.12 "HgN/A
12:30 PM82 °FPassing clouds.3 mph37%30.12 "HgN/A
12:00 PM82 °FPassing clouds.5 mph37%30.15 "HgN/A
11:30 AM81 °FPassing clouds.6 mph45%30.15 "HgN/A
11:00 AM81 °FPassing clouds.6 mph42%30.15 "HgN/A
10:30 AM79 °FSunny.7 mph45%30.15 "Hg10 mi
10:00 AM77 °FPassing clouds.6 mph51%30.15 "HgN/A
9:30 AM75 °FPassing clouds.5 mph57%30.15 "HgN/A
9:00 AM70 °FPassing clouds.5 mph69%30.15 "HgN/A
Weather by CustomWeather, © 2016

See weather overviewHow to use our weather pages